Location: Kikino
(54.4440°N, 112.0940°W)
Time: 19:27:00
(UTC+00:00)

A-11 Canister half - Pass Details

Date: 25 May 2024
Orbit: 1525 x 1683 km, 47.3° (Epoch: 12 June)

Event Time Altitude Azimuth Distance (km) Brightness Sun altitude
Rises 08:01:20 0° 272° (W) 4,732 11.5 -14.1°
Reaches altitude 10° 08:04:27 10° 267° (W) 3,766 10.9 -14.0°
Maximum altitude 08:13:35 52° 195° (SSW) 1,930 9.1 -13.8°
Drops below altitude 10° 08:23:00 10° 123° (ESE) 3,882 10.9 -13.5°
Sets 08:26:17 0° 119° (ESE) 4,886 11.5 -13.4°
